Regional Weather Roundup
Issued by NWS

Home | Current Version | Previous Version | Graphics & Text | Print | Product List | Glossary On
Versions: 1 2 3 4 5 6 7 8 9 10 11 12 13 14 15 16 17 18 19 20 21 22 23 24 25 26 27 28 29 30 31 32 33 34 35 36 37 38 39 40 41 42 43 44 45 46 47 48 49 50
000
ASUS43 KLMK 291310
RWRKY
KENTUCKY REGIONAL WEATHER ROUNDUP
NATIONAL WEATHER SERVICE LOUISVILLE KY
900 AM EDT SUN MAY 29 2016

NOTE "FAIR" INDICATES FEW OR NO CLOUDS BELOW 12,000 FEET
WITH NO SIGNIFICANT WEATHER AND/OR OBSTRUCTIONS TO VISIBILITY.

KYZ001>023-026-027-061>063-070>075-291400-
WESTERN AND SOUTH CENTRAL KENTUCKY

CITY           SKY/WX    TMP DP  RH WIND       PRES   REMARKS
PADUCAH        SUNNY     73  67  81 SW6       30.10R
HENDERSON      SUNNY     73  66  78 SW6       30.10R
OWENSBORO      MOSUNNY   74  68  81 S9        30.12R
HOPKINSVILLE   MOSUNNY   72  66  82 SW5       30.13R
BOWLING GREEN  PTSUNNY   71  66  84 CALM      30.15R
GLASGOW        PTSUNNY   73  63  72 SW3       30.15R
$$

KYZ024-025-028>034-038-045-046-053-291400-
NORTH CENTRAL KENTUCKY

CITY           SKY/WX    TMP DP  RH WIND       PRES   REMARKS
LOUISVILLE/SDF MOSUNNY   73  66  78 VRB3      30.12R
LOUISVILLE/LOU SUNNY     73  64  73 S7        30.12S
FORT KNOX      SUNNY     72  66  79 S6        30.12R
$$

KYZ035>037-039>044-047>052-055>060-089>105-291400-
NORTHEAST KENTUCKY

CITY           SKY/WX    TMP DP  RH WIND       PRES   REMARKS
LEXINGTON      CLOUDY    72  64  76 SW5       30.15R
COVINGTON      CLOUDY    70  64  81 S6        30.12S
FRANKFORT      CLOUDY    70  62  76 S5        30.13R
$$

KYZ054-064>069-076>088-106>120-291400-
SOUTHEAST KENTUCKY

CITY           SKY/WX    TMP DP  RH WIND       PRES   REMARKS
JACKSON        CLOUDY    73  65  75 CALM      30.16R
LONDON         CLOUDY    70  64  81 S5        30.16S
SOMERSET       CLOUDY    68  64  88 CALM      30.16S
MIDDLESBORO    CLOUDY    67  64  91 CALM      30.17F
MONTICELLO     CLOUDY    69  65  86 W5        30.17R
$$





USA.gov is the U.S. government's official web portal to all federal, state and local government web resources and services.